Location: Gleizolles
(44.4833°N, 6.7667°E)
Time: 13:11:09
(UTC+00:00)

STARS - Visible Passes

Search period start: 12 July 2024 00:00
Search period end: 22 July 2024 00:00
Orbit: 605 x 617 km, 98.1° (Epoch: 11 July)

Date Brightness Start Highest point End Pass type
(mag) Time Alt. Az. Time Alt. Az. Time Alt. Az.
12 Jul ? 01:06:37 10° NNW 01:09:31 18° WNW 01:10:52 16° W visible
12 Jul ? 23:44:12 10° NNE 23:48:31 71° ESE 23:48:31 71° ESE visible
13 Jul ? 01:21:51 10° NNW 01:23:51 13° WNW 01:25:30 11° W visible
13 Jul ? 23:58:41 10° NNE 00:03:01 81° WNW 00:03:09 80° WSW visible
14 Jul ? 22:38:53 10° ENE 22:40:47 14° E 22:40:47 14° E visible
15 Jul ? 00:13:14 10° N 00:17:29 57° WNW 00:17:45 56° W visible
15 Jul ? 22:52:39 10° NE 22:55:23 20° E 22:55:23 20° E visible
16 Jul ? 00:27:51 10° N 00:31:54 40° WNW 00:32:21 39° W visible
16 Jul ? 23:06:42 10° NE 23:09:58 27° E 23:09:58 27° E visible
17 Jul ? 00:42:32 10° N 00:46:17 29° WNW 00:46:57 28° W visible
17 Jul ? 23:20:55 10° NNE 23:24:33 37° E 23:24:33 37° E visible
18 Jul ? 00:57:20 10° NNW 01:00:38 22° WNW 01:01:31 20° W visible
18 Jul ? 23:35:13 10° NNE 23:39:07 53° E 23:39:07 53° E visible
19 Jul ? 01:12:17 10° NNW 01:14:56 16° WNW 01:16:05 15° W visible
19 Jul ? 23:49:35 10° NNE 23:53:41 75° ENE 23:53:41 75° ENE visible
20 Jul ? 01:27:36 10° NW 01:29:12 12° WNW 01:30:39 10° W visible
20 Jul ? 22:30:44 10° ENE 22:31:15 11° E 22:31:15 11° E visible
21 Jul ? 00:04:03 10° N 00:08:13 72° NW 00:08:13 72° NW visible
21 Jul ? 22:43:55 10° NE 22:45:47 15° ENE 22:45:47 15° ENE visible
